This is the latest recevied weather packets stored in our database for station/object WP4PW. If no packets are shown the sender has not sent any weather packets the latest 1 day(s).
| Time | Temp. | Humidity | Pressure | Rain* | Wind** | Luminosity | Snow |
|---|---|---|---|---|---|---|---|
| 1778044959 | 26.67° C | 89% | 1021.7 hPa | 0 mm | 0.45 m/s, 149° | 0 W/m² | - |
| 1778044656 | 26.67° C | 88% | 1021.5 hPa | 0 mm | 1.79 m/s, 103° | 0 W/m² | - |
| 1778044352 | 26.67° C | 89% | 1021.5 hPa | 0 mm | 1.34 m/s, 125° | 0 W/m² | - |
| 1778044050 | 26.67° C | 89% | 1021.7 hPa | 0 mm | 0.45 m/s, 60° | 0 W/m² | - |
| 1778043747 | 26.67° C | 89% | 1021.5 hPa | 0 mm | 0.89 m/s, 115° | 0 W/m² | - |
| 1778043443 | 26.67° C | 89% | 1021.5 hPa | 0 mm | 1.79 m/s, 65° | 0 W/m² | - |
| 1778043140 | 26.67° C | 89% | 1021.6 hPa | 0 mm | 0.45 m/s, 73° | 0 W/m² | - |
| 1778042838 | 26.67° C | 89% | 1021.5 hPa | 0 mm | 0.45 m/s, 69° | 0 W/m² | - |
| 1778042535 | 26.67° C | 89% | 1021.7 hPa | 0 mm | 0.89 m/s, 102° | 0 W/m² | - |
| 1778042232 | 26.67° C | 89% | 1021.9 hPa | 0 mm | 1.79 m/s, 80° | 0 W/m² | - |
| 1778041930 | 26.67° C | 89% | 1021.9 hPa | 0 mm | 0.89 m/s, 104° | 0 W/m² | - |
| 1778041629 | 26.67° C | 89% | 1021.6 hPa | 0 mm | 0.45 m/s, 134° | 0 W/m² | - |
| 1778041326 | 26.67° C | 88% | 1021.7 hPa | 0 mm | 0.89 m/s, 72° | 0 W/m² | - |
| 1778041025 | 26.67° C | 89% | 1021.7 hPa | 0 mm | 0.89 m/s, 135° | 0 W/m² | - |
| 1778040721 | 26.67° C | 88% | 1021.9 hPa | 0 mm | 0.89 m/s, 92° | 0 W/m² | - |
| 1778040419 | 26.67° C | 88% | 1021.7 hPa | 0 mm | 1.79 m/s, 130° | 0 W/m² | - |
| 1778040115 | 26.67° C | 89% | 1021.9 hPa | 0 mm | 1.79 m/s, 125° | 0 W/m² | - |
| 1778039812 | 26.67° C | 88% | 1021.9 hPa | 0 mm | 0.45 m/s, 120° | 0 W/m² | - |
| 1778039509 | 26.67° C | 88% | 1021.9 hPa | 0 mm | 1.79 m/s, 124° | 0 W/m² | - |
| 1778039206 | 26.67° C | 88% | 1021.9 hPa | 0 mm | 0 m/s | 0 W/m² | - |
| 1778038903 | 26.67° C | 89% | 1022 hPa | 0 mm | 1.79 m/s, 85° | 0 W/m² | - |
| 1778038600 | 26.67° C | 89% | 1022.1 hPa | 0 mm | 0 m/s | 0 W/m² | - |
| 1778038297 | 26.67° C | 89% | 1022 hPa | 0 mm | 1.34 m/s, 41° | 0 W/m² | - |
| 1778037994 | 26.67° C | 88% | 1022.1 hPa | 0 mm | 0.45 m/s, 117° | 0 W/m² | - |
| 1778037691 | 26.67° C | 87% | 1022.1 hPa | 0 mm | 0.45 m/s, 88° | 0 W/m² | - |
* Rain latest hour (hover to see other rain measurements)
** Current wind speed in m/s (hover to see current wind gust speed)